Location: L�Ave Maria
(50.7161°N, 1.5911°E)
Time: 13:26:15
(UTC+00:00)

Cosmos 2237 Rocket - Pass Details

Date: 10 July 2020
Orbit: 834 x 850 km, 71.0° (Epoch: 06 August)

Event Time Altitude Azimuth Distance (km) Brightness Sun altitude
Rises 22:40:52 0° 229° (SW) 3,405 5.1 -15.2°
Reaches altitude 10° 22:43:25 10° 235° (SW) 2,474 4.5 -15.3°
Maximum altitude 22:48:53 46° 308° (NW) 1,129 3.2 -15.6°
Drops below altitude 10° 22:54:22 10° 22° (NNE) 2,488 5.4 -15.8°
Sets 22:56:57 0° 28° (NNE) 3,427 6.1 -15.9°
